Location: ??
(34.9170°N, 135.5016°E)
Time: 19:55:36
(UTC+00:00)

A-11 Canister half - All Passes

Search period start: 04 March 2021 00:00
Search period end: 14 March 2021 00:00
Orbit: 1516 x 1684 km, 47.2° (Epoch: 03 March)

Date Brightness Start Highest point End Pass type
(mag) Time Alt. Az. Time Alt. Az. Time Alt. Az.
04 Mar - 00:20:07 10° SW 00:30:19 89° NW 00:40:28 10° NE daylight
04 Mar - 02:26:46 10° W 02:36:23 45° NNW 02:45:49 10° ENE daylight
04 Mar - 04:34:02 10° WNW 04:43:29 43° NNE 04:52:38 10° E daylight
04 Mar - 06:39:40 10° NW 06:49:37 82° NNE 06:59:09 10° ESE daylight
04 Mar - 08:45:41 10° WNW 08:53:50 32° SW 09:01:46 10° S daylight
04 Mar - 21:55:10 10° S 22:03:12 27° SE 22:11:12 10° ENE daylight
04 Mar - 23:57:09 10° SW 00:07:22 88° SE 00:17:31 10° NE daylight
05 Mar - 02:03:39 10° W 02:13:20 46° NNW 02:22:51 10° ENE daylight
05 Mar - 04:10:59 10° WNW 04:20:26 43° N 04:29:35 10° E daylight
05 Mar - 06:16:42 10° NW 06:26:40 79° NNE 06:36:14 10° ESE daylight
05 Mar - 08:22:36 10° WNW 08:30:59 34° SW 08:39:09 10° S daylight
05 Mar - 21:32:38 10° S 21:40:19 25° SE 21:48:02 10° ENE daylight
05 Mar - 23:34:14 10° SW 23:44:25 84° SE 23:54:34 10° NE daylight
06 Mar - 01:40:34 10° W 01:50:17 48° NNW 01:59:52 10° NE daylight
06 Mar - 03:47:56 10° WNW 03:57:23 42° N 04:06:33 10° ENE daylight
06 Mar - 05:53:44 10° NW 06:03:43 75° NNE 06:13:18 10° ESE daylight
06 Mar - 07:59:31 10° WNW 08:08:08 37° SW 08:16:31 10° SSE daylight
06 Mar - 21:10:08 10° S 21:17:27 23° SE 21:24:49 10° ENE daylight
06 Mar - 23:11:19 10° SW 23:21:28 80° SE 23:31:36 10° ENE daylight
07 Mar - 01:17:27 10° W 01:27:14 49° NNW 01:36:53 10° NE daylight
07 Mar - 03:24:54 10° WNW 03:34:20 42° N 03:43:30 10° ENE daylight
07 Mar - 05:30:46 10° NW 05:40:45 72° NNE 05:50:21 10° ESE daylight
07 Mar - 07:36:27 10° WNW 07:45:17 40° SW 07:53:51 10° SSE daylight
07 Mar - 20:47:40 10° S 20:54:36 21° SE 21:01:34 10° E visible
07 Mar - 22:48:25 10° SW 22:58:31 76° SE 23:08:38 10° ENE daylight
08 Mar - 00:54:23 10° W 01:04:12 51° NNW 01:13:55 10° NE daylight
08 Mar - 03:01:50 10° WNW 03:11:16 41° N 03:20:27 10° ENE daylight
08 Mar - 05:07:47 10° NW 05:17:47 69° NNE 05:27:23 10° ESE daylight
08 Mar - 07:13:24 10° WNW 07:22:26 43° SW 07:31:11 10° SSE daylight
08 Mar - 20:25:17 10° SSE 20:31:45 19° ESE 20:38:16 10° E visible
08 Mar - 22:25:32 10° SW 22:35:35 72° SE 22:45:41 10° ENE daylight
09 Mar - 00:31:18 10° W 00:41:10 52° NNW 00:50:57 10° NE daylight
09 Mar - 02:38:46 10° WNW 02:48:11 41° N 02:57:24 10° ENE daylight
09 Mar - 04:44:48 10° NW 04:54:48 66° NNE 05:04:25 10° ESE daylight
09 Mar - 06:50:21 10° WNW 06:59:34 46° SW 07:08:27 10° SSE daylight
09 Mar - 20:02:57 10° SSE 20:08:55 18° ESE 20:14:53 10° E visible
09 Mar - 22:02:39 10° SW 22:12:38 68° SE 22:22:42 10° ENE daylight
10 Mar - 00:08:13 10° W 00:18:08 54° NNW 00:27:58 10° NE daylight
10 Mar - 02:15:41 10° WNW 02:25:08 41° N 02:34:21 10° ENE daylight
10 Mar - 04:21:49 10° NW 04:31:49 64° NNE 04:41:26 10° ESE daylight
10 Mar - 06:27:19 10° WNW 06:36:42 50° SW 06:45:44 10° SSE daylight
10 Mar - 19:40:43 10° SSE 19:46:04 16° ESE 19:51:26 10° E visible
10 Mar - 21:39:48 10° SW 21:49:43 64° SE 21:59:43 10° ENE daylight
10 Mar - 23:45:09 10° W 23:55:06 56° NNW 00:05:01 10° NE daylight
11 Mar - 01:52:38 10° WNW 02:02:03 41° N 02:11:18 10° ENE daylight
11 Mar - 03:58:50 10° NW 04:08:49 61° NNE 04:18:27 10° ESE daylight
11 Mar - 06:04:18 10° WNW 06:13:49 53° SW 06:22:59 10° SSE daylight
11 Mar - 08:15:49 10° WSW 08:17:06 10° WSW 08:18:23 10° SW daylight
11 Mar - 19:18:38 10° SSE 19:23:14 14° ESE 19:27:52 10° E visible
11 Mar - 21:16:58 10° SSW 21:26:47 60° SE 21:36:43 10° ENE daylight
11 Mar - 23:22:06 10° WSW 23:32:04 58° NNW 23:42:03 10° NE daylight
12 Mar - 01:29:32 10° WNW 01:38:59 41° N 01:48:15 10° ENE daylight
12 Mar - 03:35:52 10° NW 03:45:49 59° NNE 03:55:27 10° ESE daylight
12 Mar - 05:41:17 10° WNW 05:50:56 57° SW 06:00:13 10° SSE daylight
12 Mar - 07:51:09 10° W 07:54:17 12° WSW 07:57:24 10° SW daylight
12 Mar - 18:56:45 10° SE 19:00:24 12° ESE 19:04:04 10° E visible
12 Mar - 20:54:09 10° SSW 21:03:53 57° SE 21:13:43 10° ENE daylight
12 Mar - 22:59:03 10° WSW 23:09:03 60° NNW 23:19:05 10° NE daylight
13 Mar - 01:06:28 10° WNW 01:15:54 41° N 01:25:13 10° ENE daylight
13 Mar - 03:12:52 10° NW 03:22:49 57° NNE 03:32:26 10° ESE daylight
13 Mar - 05:18:17 10° WNW 05:28:02 61° SW 05:37:26 10° SSE daylight
13 Mar - 07:27:16 10° W 07:31:28 14° WSW 07:35:37 10° SSW daylight
13 Mar - 18:35:20 10° SE 18:37:34 11° ESE 18:39:49 10° ESE visible
13 Mar - 20:31:22 10° SSW 20:40:58 53° SE 20:50:43 10° ENE visible
13 Mar - 22:36:01 10° WSW 22:46:02 62° NNW 22:56:07 10° NE daylight
